Weather History for KYKM - February, 2013

Change the Weather History Date:

Sunday, February 24, 2013

  Actual Average Record
Temperature  
Mean Temperature 38 °F 38 °F  
Max Temperature 48 °F 49 °F 68 °F (1986)
Min Temperature 28 °F 27 °F 9 °F (1993)
Degree Days  
Heating Degree Days 27 27  
Month to date heating degree days 597 703  
Since 1 July heating degree days 3866 4421  
Cooling Degree Days 0 0  
Month to date cooling degree days 0 0  
Year to date cooling degree days 0 0  
Moisture  
Dew Point 24 °F    
Average Humidity 60    
Maximum Humidity 78    
Minimum Humidity 42    
Precipitation  
Precipitation T in 0.02 in 0.46 in (1958)
Month to date precipitation T 0.67  
Year to date precipitation 0.10 1.81  
Snow  
Snow 0.00 in 0.00 in 7.50 in (1994)
Month to date snowfall 0.0 2.3  
Year to date snowfall 1.1 7.6  
Since 1 July snowfall 15.3 20.6  
Snow Depth 0.00 in    
Sea Level Pressure  
Sea Level Pressure 30.26 in    
Wind  
Wind Speed 2 mph (West)    
Max Wind Speed 14 mph    
Max Gust Speed -    
Visibility 10 miles    
Events      
T = Trace of Precipitation, MM = Missing Value Source: NWS Daily Summary

Daily Weather History Graph

Daily Weather History Graph

Search for Another Location

Airport or City:

Trip Planner

Search our weather history database for the weather conditions in past years. The results will help you decide how hot, cold, wet, or windy it might be!

Date:

Astronomy

Feb. 24, 2013 Rise Set
Actual Time 6:49 AM PST 5:41 PM PST
Civil Twilight 6:19 AM PST 6:11 PM PST
Nautical Twilight 5:44 AM PST 6:46 PM PST
Astronomical Twilight 5:09 AM PST 7:21 PM PST
Moon 4:58 PM PST (2/24) 5:51 AM PST (2/24)
Length of Visible Light 11h 52m
Length of Day
10h 51m
Waxing Gibbous, 99% of the Moon is Illuminated
Feb 24
Waxing Gibbous
Feb 25
Full
Mar 4
Last Quarter
Mar 11
New
Mar 19
First Quarter

Hourly Weather History & Observations

Time (PST) Temp. Windchill Dew Point Humidity Pressure Visibility Wind Dir Wind Speed Gust Speed Precip Events Conditions
12:53 AM 39.0 °F - 21.0 °F 49% 30.32 in 10.0 mi Calm Calm - N/A   Clear
1:53 AM 32.0 °F 27.5 °F 19.9 °F 61% 30.33 in 10.0 mi West 4.6 mph - N/A   Clear
2:53 AM 28.9 °F 22.8 °F 19.0 °F 67% 30.33 in 10.0 mi NW 5.8 mph - N/A   Scattered Clouds
3:53 AM 30.9 °F - 21.0 °F 67% 30.34 in 10.0 mi Calm Calm - 0.00 in   Overcast
4:53 AM 28.9 °F - 21.0 °F 72% 30.34 in 10.0 mi Calm Calm - N/A   Overcast
5:53 AM 30.9 °F - 21.9 °F 69% 30.34 in 10.0 mi Calm Calm - N/A   Overcast
6:53 AM 30.9 °F - 23.0 °F 72% 30.32 in 10.0 mi Calm Calm - N/A   Overcast
7:53 AM 34.0 °F - 23.0 °F 64% 30.34 in 10.0 mi Calm Calm - N/A   Overcast
8:53 AM 37.9 °F - 23.0 °F 55% 30.34 in 10.0 mi Calm Calm - N/A   Scattered Clouds
9:53 AM 39.9 °F - 24.1 °F 53% 30.34 in 10.0 mi Calm Calm - N/A   Scattered Clouds
10:53 AM 41.0 °F - 24.1 °F 51% 30.33 in 10.0 mi Calm Calm - N/A   Scattered Clouds
11:53 AM 43.0 °F - 25.0 °F 49% 30.32 in 10.0 mi Calm Calm - N/A   Clear
12:53 PM 44.1 °F - 25.0 °F 47% 30.29 in 10.0 mi Calm Calm - N/A   Clear
1:53 PM 45.0 °F 42.6 °F 25.0 °F 46% 30.27 in 10.0 mi ESE 4.6 mph - N/A   Clear
2:53 PM 46.0 °F 42.5 °F 24.1 °F 42% 30.26 in 10.0 mi Variable 6.9 mph - N/A   Clear
3:53 PM 46.9 °F - 26.1 °F 44% 30.24 in 10.0 mi Variable 3.5 mph - N/A   Partly Cloudy
4:53 PM 45.0 °F 42.6 °F 27.0 °F 49% 30.22 in 10.0 mi SSE 4.6 mph - N/A   Partly Cloudy
5:53 PM 39.9 °F - 25.0 °F 55% 30.21 in 10.0 mi Calm Calm - N/A   Clear
6:53 PM 33.1 °F 30.0 °F 24.1 °F 70% 30.19 in 10.0 mi West 3.5 mph - N/A   Clear
7:53 PM 34.0 °F 29.8 °F 25.0 °F 70% 30.17 in 10.0 mi WNW 4.6 mph - N/A   Clear
8:53 PM 34.0 °F - 25.0 °F 70% 30.12 in 10.0 mi Calm Calm - N/A   Clear
9:53 PM 32.0 °F 28.7 °F 25.0 °F 75% 30.09 in 10.0 mi WNW 3.5 mph - N/A   Clear
10:53 PM 30.0 °F 25.2 °F 24.1 °F 79% 30.06 in 10.0 mi WSW 4.6 mph - N/A   Partly Cloudy
11:53 PM 30.9 °F - 25.0 °F 79% 30.04 in 10.0 mi Calm Calm - N/A   Clear